Location: Banios
(43.0451°N, 0.2335°E)
Time: 12:22:03
(UTC+00:00)

Cosmos 1626 Rocket - Pass Details

Date: 25 January 2021
Orbit: 603 x 631 km, 82.5° (Epoch: 25 February)

Event Time Altitude Azimuth Distance (km) Brightness Sun altitude
Exits shadow 05:01:48 19° 5° (N) 1,519 5.5 -25.3°
Maximum altitude 05:04:54 58° 79° (E) 740 4.1 -24.8°
Drops below altitude 10° 05:09:17 10° 159° (SSE) 1,999 6.4 -24.0°
Sets 05:11:32 0° 163° (SSE) 2,899 7.3 -23.6°
